UAL377 KIND-KDEN

Flight info

Callsign UAL377
Flight time 2h 32m
Altitude 32000
Route MEARZ7 BVT IOW OBH BRWRY LAWGR3
Aircraft B738/M-SDE2E3FGHIRWXY/LB1

Departure

Time 2026-05-04 22:35
Airport Indianapolis International Airport (KIND)

Arrival

Time 2026-05-05 01:07
Airport Denver International Airport (KDEN)
Time Latitude Longitude Altitude Speed Heading
2026-05-04 22:04 39.71668 -86.29371 788 ft 0 kts 184°
2026-05-04 22:23 39.71679 -86.29370 788 ft 2 kts 184°
2026-05-04 22:23 39.71696 -86.29369 788 ft 2 kts 184°
2026-05-04 22:24 39.71712 -86.29367 787 ft 2 kts 183°
2026-05-04 22:24 39.71728 -86.29368 787 ft 2 kts 153°
2026-05-04 22:24 39.71738 -86.29379 787 ft 1 kts 96°
2026-05-04 22:24 39.71738 -86.29384 787 ft 0 kts 92°
2026-05-04 22:26 39.71750 -86.29360 787 ft 7 kts 44°
2026-05-04 22:26 39.71798 -86.29344 788 ft 7 kts 351°
2026-05-04 22:27 39.71838 -86.29381 788 ft 7 kts 310°
2026-05-04 22:27 39.71876 -86.29441 787 ft 11 kts 309°
2026-05-04 22:27 39.71935 -86.29534 786 ft 15 kts 308°
2026-05-04 22:27 39.72001 -86.29642 785 ft 15 kts 310°
2026-05-04 22:28 39.72055 -86.29681 784 ft 0 kts
2026-05-04 22:28 39.72057 -86.29681 784 ft 2 kts
2026-05-04 22:28 39.72092 -86.29655 784 ft 7 kts 38°
2026-05-04 22:28 39.72131 -86.29616 784 ft 7 kts 32°
2026-05-04 22:29 39.72189 -86.29614 782 ft 12 kts 328°
2026-05-04 22:29 39.72267 -86.29684 780 ft 15 kts
2026-05-04 22:29 39.72345 -86.29608 781 ft 14 kts 44°
2026-05-04 22:29 39.72414 -86.29521 782 ft 13 kts 44°
2026-05-04 22:30 39.72480 -86.29438 782 ft 13 kts 45°
2026-05-04 22:30 39.72543 -86.29355 785 ft 13 kts 43°
2026-05-04 22:30 39.72607 -86.29278 787 ft 12 kts 43°
2026-05-04 22:30 39.72667 -86.29198 788 ft 12 kts 46°
2026-05-04 22:31 39.72737 -86.29188 791 ft 11 kts 322°
2026-05-04 22:31 39.72752 -86.29208 791 ft 0 kts 313°
2026-05-04 22:32 39.72752 -86.29209 791 ft 0 kts 313°
2026-05-04 22:32 39.72785 -86.29253 790 ft 11 kts 314°
2026-05-04 22:33 39.72798 -86.29340 788 ft 7 kts 224°
2026-05-04 22:33 39.72771 -86.29374 787 ft 0 kts 223°
2026-05-04 22:34 39.72751 -86.29398 786 ft 25 kts 223°
2026-05-04 22:34 39.72423 -86.29814 779 ft 104 kts 224°
2026-05-04 22:34 39.71751 -86.30668 917 ft 155 kts 223°
2026-05-04 22:35 39.70924 -86.31727 1469 ft 181 kts 223°
2026-05-04 22:35 39.70030 -86.32907 2283 ft 182 kts 224°
2026-05-04 22:35 39.69150 -86.34075 3109 ft 184 kts 223°
2026-05-04 22:35 39.68200 -86.35327 3384 ft 208 kts 224°
2026-05-04 22:36 39.67140 -86.36724 3864 ft 225 kts 225°
2026-05-04 22:36 39.66004 -86.38193 4587 ft 228 kts 223°
2026-05-04 22:36 39.64866 -86.39622 5428 ft 229 kts 227°
2026-05-04 22:36 39.64125 -86.41437 6126 ft 236 kts 258°
2026-05-04 22:37 39.64140 -86.43572 6759 ft 245 kts 277°
2026-05-04 22:37 39.64718 -86.45666 7427 ft 251 kts 295°
2026-05-04 22:37 39.65883 -86.47390 8112 ft 261 kts 316°
2026-05-04 22:37 39.67551 -86.48423 8803 ft 275 kts 339°
2026-05-04 22:38 39.69504 -86.48459 9508 ft 292 kts
2026-05-04 22:38 39.71453 -86.47576 10174 ft 301 kts 15°
2026-05-04 22:38 39.73378 -86.46447 10847 ft 305 kts 17°
2026-05-04 22:38 39.75326 -86.45257 11344 ft 319 kts 17°
2026-05-04 22:39 39.77410 -86.43995 11522 ft 342 kts 18°
2026-05-04 22:39 39.79638 -86.42657 11700 ft 363 kts 18°
2026-05-04 22:39 39.81984 -86.41254 12052 ft 377 kts 18°
2026-05-04 22:39 39.84382 -86.39820 12730 ft 380 kts 18°
2026-05-04 22:40 39.86785 -86.38385 13568 ft 379 kts 18°
2026-05-04 22:40 39.89190 -86.36955 14251 ft 381 kts 18°
2026-05-04 22:40 39.91614 -86.35521 14849 ft 385 kts 18°
2026-05-04 22:40 39.94067 -86.34070 15440 ft 389 kts 18°
2026-05-04 22:41 39.96620 -86.33062 15984 ft 379 kts 359°
2026-05-04 22:41 39.99201 -86.33278 16605 ft 368 kts 340°
2026-05-04 22:41 40.01550 -86.34481 17226 ft 361 kts 326°
2026-05-04 22:41 40.03522 -86.36458 17826 ft 357 kts 312°
2026-05-04 22:42 40.05268 -86.38775 18363 ft 359 kts 310°
2026-05-04 22:42 40.06993 -86.41153 18883 ft 362 kts 310°
2026-05-04 22:42 40.08726 -86.43538 19438 ft 363 kts 310°
2026-05-04 22:42 40.10483 -86.45922 19989 ft 365 kts 310°
2026-05-04 22:43 40.12258 -86.48305 20478 ft 367 kts 310°
2026-05-04 22:43 40.14045 -86.50699 20978 ft 369 kts 310°
2026-05-04 22:43 40.15843 -86.53108 21467 ft 371 kts 310°
2026-05-04 22:43 40.17653 -86.55535 21957 ft 374 kts 310°
2026-05-04 22:44 40.19473 -86.57978 22427 ft 376 kts 310°
2026-05-04 22:44 40.21301 -86.60435 22883 ft 378 kts 310°
2026-05-04 22:44 40.23139 -86.62907 23353 ft 380 kts 310°
2026-05-04 22:44 40.24990 -86.65398 23731 ft 382 kts 310°
2026-05-04 22:45 40.26847 -86.67900 24098 ft 384 kts 310°
2026-05-04 22:45 40.30590 -86.72950 24858 ft 387 kts 310°
2026-05-04 22:45 40.32445 -86.75456 25216 ft 389 kts 310°
2026-05-04 22:46 40.34360 -86.78044 25556 ft 391 kts 310°
2026-05-04 22:46 40.36232 -86.80577 25891 ft 393 kts 310°
2026-05-04 22:46 40.38140 -86.83161 26245 ft 394 kts 310°
2026-05-04 22:46 40.40058 -86.85760 26582 ft 396 kts 310°
2026-05-04 22:47 40.41979 -86.88367 26891 ft 398 kts 310°
2026-05-04 22:47 40.43910 -86.90990 27193 ft 400 kts 310°
2026-05-04 22:47 40.45844 -86.93618 27541 ft 401 kts 310°
2026-05-04 22:47 40.47782 -86.96254 27858 ft 402 kts 310°
2026-05-04 22:48 40.49727 -86.98901 28208 ft 402 kts 310°
2026-05-04 22:48 40.51665 -87.01540 28655 ft 401 kts 310°
2026-05-04 22:48 40.53522 -87.04238 29161 ft 395 kts 304°
2026-05-04 22:48 40.55043 -87.07212 29643 ft 390 kts 298°
2026-05-04 22:49 40.56315 -87.10359 29996 ft 389 kts 293°
2026-05-04 22:49 40.57255 -87.13685 30264 ft 389 kts 287°
2026-05-04 22:49 40.58049 -87.17083 30601 ft 388 kts 287°
2026-05-04 22:49 40.58815 -87.20421 30951 ft 386 kts 287°
2026-05-04 22:50 40.59591 -87.23808 31236 ft 386 kts 287°
2026-05-04 22:50 40.60369 -87.27197 31500 ft 386 kts 287°
2026-05-04 22:50 40.61147 -87.30577 31710 ft 387 kts 287°
2026-05-04 22:50 40.61933 -87.33982 31699 ft 389 kts 287°
2026-05-04 22:51 40.63506 -87.40786 31691 ft 386 kts 288°
2026-05-04 22:51 40.65056 -87.47502 31695 ft 382 kts 288°
2026-05-04 22:52 40.66597 -87.54191 31696 ft 382 kts 288°
2026-05-04 22:52 40.68135 -87.60886 31688 ft 381 kts 288°
2026-05-04 22:53 40.69667 -87.67574 31687 ft 382 kts 288°
2026-05-04 22:53 40.71197 -87.74277 31678 ft 382 kts 288°
2026-05-04 22:54 40.72723 -87.80982 31676 ft 382 kts 288°
2026-05-04 22:54 40.74237 -87.87651 31665 ft 382 kts 288°
2026-05-04 22:55 40.75756 -87.94365 31669 ft 382 kts 288°
2026-05-04 22:55 40.77273 -88.01090 31658 ft 383 kts 288°
2026-05-04 22:56 40.78786 -88.07818 31661 ft 382 kts 288°
2026-05-04 22:56 40.80295 -88.14549 31655 ft 382 kts 288°
2026-05-04 22:57 40.81800 -88.21283 31653 ft 382 kts 288°
2026-05-04 22:57 40.83298 -88.28004 31641 ft 382 kts 288°
2026-05-04 22:58 40.84783 -88.34689 31640 ft 381 kts 288°
2026-05-04 22:58 40.86270 -88.41404 31633 ft 381 kts 288°
2026-05-04 22:59 40.87753 -88.48120 31634 ft 380 kts 288°
2026-05-04 22:59 40.89229 -88.54823 31627 ft 380 kts 288°
2026-05-04 23:00 40.90700 -88.61527 31625 ft 379 kts 288°
2026-05-04 23:00 40.92162 -88.68203 31621 ft 377 kts 288°
2026-05-04 23:01 40.93368 -88.73734 31626 ft 376 kts 288°
2026-05-04 23:01 40.94812 -88.80372 31628 ft 375 kts 288°
2026-05-04 23:02 40.96250 -88.87006 31631 ft 375 kts 288°
2026-05-04 23:02 40.97686 -88.93646 31628 ft 376 kts 288°
2026-05-04 23:03 40.99121 -89.00303 31634 ft 377 kts 288°
2026-05-04 23:03 41.00560 -89.07000 31627 ft 379 kts 288°
2026-05-04 23:04 41.02003 -89.13733 31628 ft 381 kts 287°
2026-05-04 23:04 41.03446 -89.20494 31623 ft 382 kts 287°
2026-05-04 23:05 41.04881 -89.27233 31621 ft 383 kts 287°
2026-05-04 23:05 41.06335 -89.34087 31619 ft 384 kts 287°
2026-05-04 23:06 41.07766 -89.40857 31623 ft 384 kts 287°
2026-05-04 23:06 41.09203 -89.47673 31625 ft 384 kts 287°
2026-05-04 23:07 41.10633 -89.54480 31615 ft 383 kts 287°
2026-05-04 23:07 41.12057 -89.61281 31612 ft 382 kts 287°
2026-05-04 23:08 41.13476 -89.68076 31615 ft 382 kts 287°
2026-05-04 23:08 41.14892 -89.74879 31610 ft 382 kts 287°
2026-05-04 23:09 41.16301 -89.81672 31614 ft 382 kts 287°
2026-05-04 23:09 41.17696 -89.88421 31608 ft 381 kts 287°
2026-05-04 23:10 41.19097 -89.95219 31611 ft 381 kts 287°
2026-05-04 23:10 41.20492 -90.02014 31603 ft 382 kts 287°
2026-05-04 23:11 41.21887 -90.08825 31599 ft 382 kts 287°
2026-05-04 23:11 41.23279 -90.15647 31600 ft 383 kts 287°
2026-05-04 23:12 41.24668 -90.22479 31593 ft 383 kts 286°
2026-05-04 23:12 41.26057 -90.29331 31594 ft 384 kts 286°
2026-05-04 23:13 41.27444 -90.36196 31590 ft 385 kts 286°
2026-05-04 23:13 41.28827 -90.43070 31587 ft 385 kts 286°
2026-05-04 23:14 41.30208 -90.49949 31589 ft 385 kts 286°
2026-05-04 23:14 41.31576 -90.56791 31592 ft 386 kts 286°
2026-05-04 23:15 41.32951 -90.63693 31587 ft 386 kts 286°
2026-05-04 23:15 41.34323 -90.70602 31587 ft 386 kts 286°
2026-05-04 23:16 41.35691 -90.77515 31580 ft 386 kts 286°
2026-05-04 23:16 41.37055 -90.84427 31593 ft 386 kts 286°
2026-05-04 23:17 41.38411 -90.91327 31594 ft 385 kts 286°
2026-05-04 23:17 41.39764 -90.98234 31608 ft 385 kts 286°
2026-05-04 23:18 41.41112 -91.05138 31607 ft 385 kts 285°
2026-05-04 23:18 41.42455 -91.12043 31613 ft 385 kts 285°
2026-05-04 23:19 41.43792 -91.18944 31612 ft 385 kts 285°
2026-05-04 23:19 41.45127 -91.25853 31605 ft 385 kts 285°
2026-05-04 23:20 41.46449 -91.32719 31601 ft 385 kts 285°
2026-05-04 23:20 41.47775 -91.39635 31605 ft 385 kts 285°
2026-05-04 23:21 41.49099 -91.46563 31610 ft 385 kts 285°
2026-05-04 23:21 41.50420 -91.53492 31613 ft 386 kts 285°
2026-05-04 23:22 41.51682 -91.60453 31608 ft 387 kts 281°
2026-05-04 23:22 41.51992 -91.67653 31614 ft 390 kts 273°
2026-05-04 23:23 41.52016 -91.74881 31606 ft 390 kts 274°
2026-05-04 23:23 41.52050 -91.82116 31601 ft 390 kts 274°
2026-05-04 23:24 41.52088 -91.89351 31599 ft 390 kts 274°
2026-05-04 23:24 41.52125 -91.96536 31588 ft 390 kts 273°
2026-05-04 23:25 41.52159 -92.03762 31593 ft 389 kts 273°
2026-05-04 23:25 41.52188 -92.10988 31592 ft 389 kts 273°
2026-05-04 23:26 41.52212 -92.18200 31594 ft 389 kts 273°
2026-05-04 23:26 41.52232 -92.25412 31602 ft 388 kts 273°
2026-05-04 23:27 41.52248 -92.32611 31607 ft 388 kts 273°
2026-05-04 23:27 41.52259 -92.39811 31606 ft 388 kts 273°
2026-05-04 23:28 41.52265 -92.46958 31627 ft 387 kts 273°
2026-05-04 23:28 41.52267 -92.54148 31643 ft 387 kts 273°
2026-05-04 23:29 41.52265 -92.61334 31650 ft 387 kts 273°
2026-05-04 23:29 41.52258 -92.68517 31659 ft 387 kts 273°
2026-05-04 23:30 41.52246 -92.75704 31651 ft 387 kts 273°
2026-05-04 23:30 41.52231 -92.82890 31643 ft 387 kts 272°
2026-05-04 23:31 41.52211 -92.90077 31660 ft 387 kts 272°
2026-05-04 23:31 41.52186 -92.97259 31651 ft 387 kts 272°
2026-05-04 23:32 41.52157 -93.04445 31651 ft 387 kts 272°
2026-05-04 23:32 41.52123 -93.11628 31651 ft 387 kts 272°
2026-05-04 23:33 41.52085 -93.18816 31648 ft 387 kts 272°
2026-05-04 23:33 41.52042 -93.26013 31649 ft 388 kts 272°
2026-05-04 23:34 41.51995 -93.33161 31667 ft 388 kts 272°
2026-05-04 23:34 41.51943 -93.40351 31656 ft 388 kts 272°
2026-05-04 23:35 41.51887 -93.47548 31665 ft 388 kts 272°
2026-05-04 23:35 41.51826 -93.54746 31677 ft 388 kts 272°
2026-05-04 23:36 41.51761 -93.61949 31673 ft 388 kts 272°
2026-05-04 23:36 41.51691 -93.69150 31674 ft 388 kts 272°
2026-05-04 23:37 41.51617 -93.76351 31675 ft 388 kts 272°
2026-05-04 23:37 41.51540 -93.83562 31654 ft 391 kts 270°
2026-05-04 23:38 41.51456 -93.90860 31674 ft 400 kts 270°
2026-05-04 23:38 41.51365 -93.98295 31659 ft 401 kts 270°
2026-05-04 23:39 41.51268 -94.05727 31662 ft 400 kts 270°
2026-05-04 23:39 41.51168 -94.13144 31668 ft 399 kts 270°
2026-05-04 23:40 41.51063 -94.20543 31670 ft 398 kts 270°
2026-05-04 23:40 41.50954 -94.27921 31668 ft 397 kts 270°
2026-05-04 23:41 41.50841 -94.35290 31668 ft 397 kts 270°
2026-05-04 23:41 41.50723 -94.42645 31674 ft 396 kts 270°
2026-05-04 23:42 41.50600 -94.49986 31672 ft 396 kts 270°
2026-05-04 23:42 41.50473 -94.57327 31687 ft 395 kts 270°
2026-05-04 23:43 41.50342 -94.64650 31699 ft 395 kts 270°
2026-05-04 23:43 41.50206 -94.71976 31711 ft 395 kts 270°
2026-05-04 23:44 41.50066 -94.79266 31709 ft 395 kts 270°
2026-05-04 23:44 41.49920 -94.86601 31714 ft 395 kts 270°
2026-05-04 23:45 41.49770 -94.93929 31722 ft 395 kts 270°
2026-05-04 23:45 41.49615 -95.01261 31723 ft 395 kts 270°
2026-05-04 23:46 41.49455 -95.08588 31729 ft 395 kts 270°
2026-05-04 23:46 41.49291 -95.15912 31727 ft 395 kts 270°
2026-05-04 23:47 41.49123 -95.23234 31745 ft 395 kts 270°
2026-05-04 23:47 41.48950 -95.30551 31746 ft 394 kts 270°
2026-05-04 23:48 41.48773 -95.37819 31745 ft 394 kts 270°
2026-05-04 23:48 41.48591 -95.45114 31745 ft 394 kts 270°
2026-05-04 23:49 41.48404 -95.52412 31740 ft 394 kts 270°
2026-05-04 23:49 41.48213 -95.59716 31737 ft 393 kts 270°
2026-05-04 23:50 41.48018 -95.67001 31738 ft 393 kts 270°
2026-05-04 23:50 41.47818 -95.74276 31723 ft 392 kts 270°
2026-05-04 23:51 41.47613 -95.81544 31730 ft 392 kts 269°
2026-05-04 23:51 41.47405 -95.88798 31729 ft 392 kts 269°
2026-05-04 23:52 41.47228 -95.94827 31775 ft 391 kts 269°
2026-05-04 23:52 41.47012 -96.02067 31786 ft 391 kts 269°
2026-05-04 23:53 41.46755 -96.10472 31782 ft 390 kts 269°
2026-05-04 23:53 41.46530 -96.17694 31790 ft 390 kts 269°
2026-05-04 23:54 41.46337 -96.23747 31779 ft 390 kts 269°
2026-05-04 23:54 41.46103 -96.30959 31775 ft 390 kts 269°
2026-05-04 23:55 41.45865 -96.38180 31801 ft 390 kts 269°
2026-05-04 23:56 41.45499 -96.48999 31807 ft 390 kts 269°
2026-05-04 23:56 41.45251 -96.56167 31805 ft 390 kts 269°
2026-05-04 23:57 41.44997 -96.63381 31804 ft 390 kts 269°
2026-05-04 23:57 41.44739 -96.70600 31799 ft 390 kts 269°
2026-05-04 23:58 41.44476 -96.77806 31795 ft 390 kts 269°
2026-05-04 23:58 41.44208 -96.85021 31791 ft 389 kts 269°
2026-05-04 23:59 41.43936 -96.92223 31792 ft 389 kts 269°
2026-05-04 23:59 41.43660 -96.99426 31793 ft 389 kts 269°
2026-05-05 00:00 41.43380 -97.06619 31800 ft 388 kts 269°
2026-05-05 00:00 41.43096 -97.13796 31799 ft 388 kts 269°
2026-05-05 00:01 41.42809 -97.20914 31807 ft 387 kts 269°
2026-05-05 00:01 41.42517 -97.28067 31848 ft 386 kts 269°
2026-05-05 00:02 41.42221 -97.35208 31844 ft 386 kts 269°
2026-05-05 00:02 41.41921 -97.42342 31842 ft 385 kts 269°
2026-05-05 00:03 41.41617 -97.49464 31839 ft 385 kts 269°
2026-05-05 00:03 41.41308 -97.56585 31835 ft 385 kts 268°
2026-05-05 00:04 41.40995 -97.63706 31827 ft 385 kts 268°
2026-05-05 00:04 41.40678 -97.70823 31828 ft 385 kts 268°
2026-05-05 00:05 41.40357 -97.77938 31820 ft 385 kts 268°
2026-05-05 00:05 41.40031 -97.85046 31819 ft 385 kts 268°
2026-05-05 00:06 41.39701 -97.92166 31821 ft 385 kts 268°
2026-05-05 00:06 41.39368 -97.99228 31823 ft 385 kts 268°
2026-05-05 00:07 41.39029 -98.06351 31823 ft 385 kts 268°
2026-05-05 00:07 41.38685 -98.13470 31823 ft 385 kts 268°
2026-05-05 00:08 41.38337 -98.20589 31820 ft 385 kts 268°
2026-05-05 00:08 41.37986 -98.27711 31824 ft 385 kts 268°
2026-05-05 00:09 41.37542 -98.34822 31820 ft 387 kts 263°
2026-05-05 00:09 41.36102 -98.41747 31821 ft 390 kts 256°
2026-05-05 00:10 41.34393 -98.48597 31823 ft 390 kts 256°
2026-05-05 00:10 41.32693 -98.55445 31826 ft 390 kts 256°
2026-05-05 00:11 41.31001 -98.62290 31821 ft 389 kts 256°
2026-05-05 00:11 41.29311 -98.69129 31825 ft 389 kts 256°
2026-05-05 00:12 41.27618 -98.75965 31815 ft 389 kts 256°
2026-05-05 00:12 41.25921 -98.82797 31810 ft 389 kts 256°
2026-05-05 00:13 41.24234 -98.89574 31818 ft 389 kts 256°
2026-05-05 00:13 41.22530 -98.96395 31813 ft 389 kts 256°
2026-05-05 00:14 41.20820 -99.03217 31814 ft 389 kts 256°
2026-05-05 00:14 41.19109 -99.10030 31811 ft 389 kts 256°
2026-05-05 00:15 41.17393 -99.16841 31804 ft 389 kts 255°
2026-05-05 00:15 41.15671 -99.23652 31805 ft 389 kts 255°
2026-05-05 00:16 41.13945 -99.30463 31805 ft 389 kts 255°
2026-05-05 00:16 41.12217 -99.37266 31803 ft 389 kts 255°
2026-05-05 00:17 41.10483 -99.44067 31802 ft 389 kts 255°
2026-05-05 00:17 41.08746 -99.50866 31800 ft 389 kts 255°
2026-05-05 00:18 41.07003 -99.57664 31799 ft 390 kts 255°
2026-05-05 00:18 41.05256 -99.64463 31807 ft 390 kts 255°
2026-05-05 00:19 41.03503 -99.71264 31807 ft 390 kts 255°
2026-05-05 00:19 41.01760 -99.78008 31805 ft 390 kts 255°
2026-05-05 00:20 40.99987 -99.84848 31804 ft 390 kts 255°
2026-05-05 00:20 40.98232 -99.91598 31808 ft 390 kts 255°
2026-05-05 00:21 40.96461 -99.98396 31798 ft 391 kts 255°
2026-05-05 00:21 40.94687 -100.05181 31802 ft 390 kts 255°
2026-05-05 00:22 40.92909 -100.11966 31797 ft 390 kts 255°
2026-05-05 00:22 40.91126 -100.18749 31796 ft 390 kts 255°
2026-05-05 00:23 40.89342 -100.25518 31789 ft 390 kts 255°
2026-05-05 00:23 40.87552 -100.32291 31781 ft 390 kts 255°
2026-05-05 00:24 40.85759 -100.39058 31789 ft 390 kts 255°
2026-05-05 00:24 40.83962 -100.45823 31791 ft 390 kts 255°
2026-05-05 00:25 40.82160 -100.52588 31793 ft 390 kts 254°
2026-05-05 00:25 40.80356 -100.59344 31796 ft 390 kts 254°
2026-05-05 00:26 40.78554 -100.66108 31779 ft 389 kts 256°
2026-05-05 00:26 40.77264 -100.73007 31796 ft 387 kts 261°
2026-05-05 00:27 40.76176 -100.79964 31795 ft 387 kts 261°
2026-05-05 00:27 40.75042 -100.86906 31788 ft 387 kts 260°
2026-05-05 00:28 40.73877 -100.93797 31793 ft 387 kts 260°
2026-05-05 00:28 40.72691 -101.00728 31792 ft 388 kts 260°
2026-05-05 00:29 40.71501 -101.07668 31790 ft 388 kts 260°
2026-05-05 00:29 40.70305 -101.14595 31793 ft 388 kts 260°
2026-05-05 00:30 40.69094 -101.21532 31788 ft 389 kts 260°
2026-05-05 00:30 40.67875 -101.28474 31797 ft 389 kts 260°
2026-05-05 00:31 40.66653 -101.35420 31805 ft 389 kts 260°
2026-05-05 00:31 40.65426 -101.42370 31810 ft 390 kts 260°
2026-05-05 00:32 40.64193 -101.49329 31815 ft 390 kts 260°
2026-05-05 00:32 40.62956 -101.56284 31819 ft 390 kts 260°
2026-05-05 00:33 40.61715 -101.63240 31819 ft 391 kts 260°
2026-05-05 00:33 40.60467 -101.70210 31822 ft 391 kts 259°
2026-05-05 00:34 40.59216 -101.77168 31814 ft 391 kts 259°
2026-05-05 00:34 40.57962 -101.84116 31810 ft 391 kts 259°
2026-05-05 00:35 40.56705 -101.91063 31799 ft 391 kts 259°
2026-05-05 00:35 40.55442 -101.98014 31788 ft 390 kts 259°
2026-05-05 00:36 40.54163 -102.04945 31778 ft 390 kts 259°
2026-05-05 00:36 40.52876 -102.11866 31771 ft 390 kts 259°
2026-05-05 00:37 40.51587 -102.18788 31767 ft 390 kts 259°
2026-05-05 00:37 40.50294 -102.25707 31770 ft 389 kts 259°
2026-05-05 00:38 40.49009 -102.32563 31766 ft 389 kts 259°
2026-05-05 00:38 40.47711 -102.39463 31765 ft 389 kts 259°
2026-05-05 00:39 40.46409 -102.46362 31757 ft 389 kts 259°
2026-05-05 00:39 40.45105 -102.53249 31760 ft 389 kts 259°
2026-05-05 00:40 40.43798 -102.60133 31758 ft 389 kts 259°
2026-05-05 00:40 40.42485 -102.67015 31752 ft 389 kts 259°
2026-05-05 00:41 40.41162 -102.73888 31754 ft 389 kts 259°
2026-05-05 00:41 40.40048 -102.79652 31752 ft 389 kts 259°
2026-05-05 00:42 40.38720 -102.86514 31754 ft 388 kts 259°
2026-05-05 00:42 40.37389 -102.93373 31222 ft 394 kts 258°
2026-05-05 00:42 40.36724 -102.96789 30752 ft 390 kts 258°
2026-05-05 00:43 40.36053 -103.00225 30251 ft 387 kts 257°
2026-05-05 00:43 40.35379 -103.03680 29554 ft 388 kts 257°
2026-05-05 00:43 40.34724 -103.07048 29023 ft 384 kts 257°
2026-05-05 00:43 40.34067 -103.10421 28487 ft 380 kts 257°
2026-05-05 00:44 40.33416 -103.13762 28012 ft 376 kts 257°
2026-05-05 00:44 40.32772 -103.17064 27533 ft 372 kts 257°
2026-05-05 00:44 40.32135 -103.20322 27082 ft 368 kts 257°
2026-05-05 00:44 40.31501 -103.23560 26611 ft 365 kts 257°
2026-05-05 00:45 40.30872 -103.26765 26152 ft 362 kts 257°
2026-05-05 00:45 40.30244 -103.29946 25689 ft 359 kts 257°
2026-05-05 00:45 40.29617 -103.33097 25226 ft 357 kts 257°
2026-05-05 00:45 40.28990 -103.36240 24779 ft 355 kts 257°
2026-05-05 00:46 40.28366 -103.39365 24337 ft 353 kts 257°
2026-05-05 00:46 40.27747 -103.42464 23895 ft 351 kts 257°
2026-05-05 00:46 40.27129 -103.45557 23455 ft 350 kts 257°
2026-05-05 00:46 40.26514 -103.48633 22942 ft 349 kts 256°
2026-05-05 00:47 40.25901 -103.51693 22471 ft 347 kts 256°
2026-05-05 00:47 40.25289 -103.54739 22029 ft 344 kts 256°
2026-05-05 00:47 40.24685 -103.57746 21675 ft 340 kts 256°
2026-05-05 00:47 40.24093 -103.60725 21435 ft 337 kts 256°
2026-05-05 00:48 40.23496 -103.63749 21208 ft 350 kts 256°
2026-05-05 00:48 40.22879 -103.66873 20937 ft 359 kts 256°
2026-05-05 00:48 40.22251 -103.70044 20651 ft 361 kts 256°
2026-05-05 00:48 40.21623 -103.73202 20377 ft 357 kts 256°
2026-05-05 00:49 40.20999 -103.76336 20103 ft 354 kts 256°
2026-05-05 00:49 40.20379 -103.79446 19834 ft 352 kts 256°
2026-05-05 00:49 40.19767 -103.82517 19559 ft 346 kts 256°
2026-05-05 00:49 40.19164 -103.85531 19294 ft 339 kts 256°
2026-05-05 00:50 40.18572 -103.88487 19031 ft 332 kts 256°
2026-05-05 00:50 40.17901 -103.91347 18757 ft 328 kts 246°
2026-05-05 00:50 40.16791 -103.93926 18478 ft 324 kts 239°
2026-05-05 00:50 40.15595 -103.96399 18197 ft 319 kts 239°
2026-05-05 00:51 40.14409 -103.98827 17916 ft 315 kts 239°
2026-05-05 00:51 40.13239 -104.01244 17624 ft 314 kts 239°
2026-05-05 00:51 40.12100 -104.03619 17328 ft 311 kts 239°
2026-05-05 00:51 40.10960 -104.06014 17036 ft 309 kts 239°
2026-05-05 00:52 40.09833 -104.08389 16747 ft 307 kts 239°
2026-05-05 00:52 40.08715 -104.10750 16469 ft 305 kts 239°
2026-05-05 00:52 40.07603 -104.13094 16198 ft 303 kts 239°
2026-05-05 00:52 40.06496 -104.15427 15915 ft 301 kts 239°
2026-05-05 00:53 40.05395 -104.17746 15646 ft 300 kts 239°
2026-05-05 00:53 40.04296 -104.20055 15378 ft 299 kts 238°
2026-05-05 00:53 40.03200 -104.22357 15122 ft 298 kts 238°
2026-05-05 00:53 40.02107 -104.24650 14862 ft 298 kts 238°
2026-05-05 00:54 40.01017 -104.26939 14609 ft 297 kts 238°
2026-05-05 00:54 39.99925 -104.29228 14349 ft 297 kts 238°
2026-05-05 00:54 39.98834 -104.31514 14098 ft 297 kts 238°
2026-05-05 00:54 39.97745 -104.33796 13843 ft 296 kts 238°
2026-05-05 00:55 39.96655 -104.36077 13589 ft 296 kts 238°
2026-05-05 00:55 39.95566 -104.38354 13300 ft 296 kts 238°
2026-05-05 00:55 39.94473 -104.40636 13026 ft 296 kts 238°
2026-05-05 00:55 39.93388 -104.42904 12786 ft 294 kts 238°
2026-05-05 00:56 39.92309 -104.45162 12559 ft 292 kts 238°
2026-05-05 00:56 39.91221 -104.47388 12351 ft 290 kts 232°
2026-05-05 00:56 39.89727 -104.49088 12121 ft 285 kts 209°
2026-05-05 00:56 39.87882 -104.49934 11923 ft 281 kts 188°
2026-05-05 00:57 39.85939 -104.50058 11720 ft 278 kts 181°
2026-05-05 00:57 39.84019 -104.50067 11497 ft 275 kts 181°
2026-05-05 00:57 39.82116 -104.50077 11275 ft 272 kts 181°
2026-05-05 00:57 39.80240 -104.50098 11108 ft 267 kts 181°
2026-05-05 00:58 39.78416 -104.50133 11029 ft 257 kts 181°
2026-05-05 00:58 39.76662 -104.50175 11033 ft 250 kts 181°
2026-05-05 00:58 39.74885 -104.50217 10646 ft 262 kts 181°
2026-05-05 00:58 39.73094 -104.50237 10421 ft 261 kts 180°
2026-05-05 00:59 39.71269 -104.50230 10245 ft 256 kts 179°
2026-05-05 00:59 39.69531 -104.50199 10093 ft 251 kts 178°
2026-05-05 00:59 39.67806 -104.50153 9957 ft 245 kts 178°
2026-05-05 00:59 39.66114 -104.50100 9840 ft 240 kts 177°
2026-05-05 01:00 39.64443 -104.50033 9764 ft 242 kts 177°
2026-05-05 01:00 39.62731 -104.49990 9700 ft 250 kts 179°
2026-05-05 01:00 39.61034 -104.50461 9628 ft 253 kts 208°
2026-05-05 01:00 39.59730 -104.51966 9582 ft 254 kts 238°
2026-05-05 01:01 39.59139 -104.54102 9527 ft 253 kts 262°
2026-05-05 01:01 39.59024 -104.56376 9426 ft 255 kts 276°
2026-05-05 01:01 39.59183 -104.58665 9361 ft 256 kts 277°
2026-05-05 01:01 39.59460 -104.60935 9252 ft 253 kts 296°
2026-05-05 01:02 39.60552 -104.62597 9192 ft 240 kts 332°
2026-05-05 01:02 39.62020 -104.63600 9106 ft 238 kts 334°
2026-05-05 01:02 39.63546 -104.64415 8924 ft 240 kts 353°
2026-05-05 01:02 39.65202 -104.64441 8703 ft 234 kts
2026-05-05 01:03 39.66792 -104.64395 8421 ft 224 kts
2026-05-05 01:03 39.68320 -104.64364 8138 ft 214 kts
2026-05-05 01:03 39.69766 -104.64341 7909 ft 201 kts
2026-05-05 01:03 39.71114 -104.64322 7668 ft 187 kts
2026-05-05 01:04 39.72385 -104.64305 7462 ft 180 kts
2026-05-05 01:04 39.74682 -104.64274 7105 ft 151 kts
2026-05-05 01:04 39.75734 -104.64254 6976 ft 157 kts 360°
2026-05-05 01:05 39.76838 -104.64240 6755 ft 158 kts 359°
2026-05-05 01:05 39.77925 -104.64228 6559 ft 153 kts
2026-05-05 01:05 39.78982 -104.64219 6330 ft 152 kts 359°
2026-05-05 01:05 39.80037 -104.64205 6123 ft 154 kts
2026-05-05 01:06 39.81116 -104.64183 5872 ft 157 kts 359°
2026-05-05 01:06 39.82205 -104.64184 5646 ft 153 kts 358°
2026-05-05 01:06 39.83275 -104.64173 5408 ft 155 kts 360°
2026-05-05 01:06 39.84269 -104.64160 5367 ft 117 kts
2026-05-05 01:07 39.84868 -104.64155 5356 ft 55 kts
2026-05-05 01:07 39.85115 -104.64180 5350 ft 30 kts 347°
2026-05-05 01:07 39.85289 -104.64282 5349 ft 15 kts 332°
2026-05-05 01:07 39.85302 -104.64290 5349 ft 0 kts 333°
2026-05-05 01:08 39.85315 -104.64299 5350 ft 9 kts 332°
2026-05-05 01:08 39.85417 -104.64358 5352 ft 18 kts 348°
2026-05-05 01:08 39.85539 -104.64358 5350 ft 17 kts
2026-05-05 01:08 39.85656 -104.64358 5350 ft 17 kts
2026-05-05 01:09 39.85769 -104.64361 5351 ft 16 kts 346°
2026-05-05 01:09 39.85870 -104.64426 5350 ft 16 kts 332°
2026-05-05 01:09 39.85969 -104.64495 5351 ft 16 kts 331°
2026-05-05 01:09 39.86062 -104.64564 5351 ft 15 kts 330°
2026-05-05 01:10 39.86152 -104.64630 5351 ft 14 kts 330°
2026-05-05 01:10 39.86237 -104.64694 5351 ft 14 kts 330°
2026-05-05 01:10 39.86322 -104.64756 5351 ft 15 kts 330°
2026-05-05 01:10 39.86433 -104.64836 5351 ft 19 kts 330°
2026-05-05 01:11 39.86492 -104.64969 5352 ft 18 kts 271°
2026-05-05 01:11 39.86493 -104.65130 5354 ft 17 kts 270°
2026-05-05 01:11 39.86493 -104.65286 5357 ft 17 kts 269°
2026-05-05 01:11 39.86493 -104.65435 5360 ft 16 kts 271°
2026-05-05 01:12 39.86495 -104.65592 5364 ft 18 kts 271°
2026-05-05 01:12 39.86496 -104.65758 5366 ft 18 kts 270°
2026-05-05 01:12 39.86498 -104.65918 5371 ft 17 kts 271°
2026-05-05 01:12 39.86499 -104.66072 5376 ft 17 kts 271°
2026-05-05 01:13 39.86501 -104.66220 5385 ft 16 kts 271°
2026-05-05 01:13 39.86461 -104.66343 5385 ft 16 kts 193°
2026-05-05 01:13 39.86334 -104.66344 5382 ft 20 kts 181°
2026-05-05 01:13 39.86199 -104.66347 5385 ft 19 kts 180°
2026-05-05 01:14 39.86068 -104.66347 5386 ft 19 kts 180°
2026-05-05 01:14 39.85941 -104.66349 5387 ft 18 kts 179°
2026-05-05 01:14 39.85819 -104.66350 5390 ft 17 kts 181°
2026-05-05 01:14 39.85703 -104.66364 5390 ft 17 kts 211°
2026-05-05 01:15 39.85679 -104.66508 5386 ft 17 kts 268°
2026-05-05 01:15 39.85657 -104.66653 5386 ft 16 kts 270°
2026-05-05 01:15 39.85670 -104.66795 5383 ft 16 kts 303°
2026-05-05 01:15 39.85728 -104.66902 5386 ft 15 kts 273°
2026-05-05 01:16 39.85731 -104.67034 5386 ft 14 kts 273°
2026-05-05 01:16 39.85738 -104.67151 5383 ft 6 kts 302°
2026-05-05 01:16 39.85759 -104.67151 5386 ft 4 kts
2026-05-05 01:16 39.85791 -104.67149 5386 ft 5 kts
2026-05-05 01:17 39.85810 -104.67149 5386 ft 0 kts 358°